Time,TemperatureF,DewpointF,PressureIn,WindDirection,WindDirectionDegrees,WindSpeedMPH,WindSpeedGustMPH,Humidity,HourlyPrecipIn,Conditions,Clouds,dailyrainin,SoftwareType,DateUTC
2013-05-18 00:14:00,57.7,28.9,30.18,North,0,0.0,0.0,33,0.00,,CLR,0.00,VWS V14.00,2013-05-18 04:14:00,
2013-05-18 00:29:00,58.1,28.4,30.18,North,0,0.0,0.0,32,0.00,,CLR,0.00,VWS V14.00,2013-05-18 04:29:00,
2013-05-18 00:44:00,58.1,28.4,30.18,North,0,0.0,0.0,32,0.00,,CLR,0.00,VWS V14.00,2013-05-18 04:44:00,
2013-05-18 01:00:00,57.7,29.6,30.18,North,0,0.0,0.0,34,0.00,,CLR,0.00,VWS V14.00,2013-05-18 05:00:00,
2013-05-18 01:14:00,57.7,30.3,30.18,North,0,0.0,0.0,35,0.00,,CLR,0.00,VWS V14.00,2013-05-18 05:14:00,
2013-05-18 01:29:00,57.4,30.7,30.18,North,0,0.0,0.0,36,0.00,,CLR,0.00,VWS V14.00,2013-05-18 05:29:00,
2013-05-18 01:44:00,56.8,30.2,30.18,North,0,0.0,0.0,36,0.00,,CLR,0.00,VWS V14.00,2013-05-18 05:44:00,
2013-05-18 01:59:00,57.4,30.0,30.18,North,0,0.0,0.0,35,0.00,,CLR,0.00,VWS V14.00,2013-05-18 05:59:00,
2013-05-18 02:15:00,56.8,30.2,30.18,North,0,0.0,0.0,36,0.00,,BKN080,0.00,VWS V14.00,2013-05-18 06:15:00,
2013-05-18 02:29:00,57.0,30.4,30.18,North,0,0.0,0.0,36,0.00,,BKN080,0.00,VWS V14.00,2013-05-18 06:29:00,
2013-05-18 02:44:00,56.8,30.9,30.18,North,0,0.0,0.0,37,0.00,,BKN080,0.00,VWS V14.00,2013-05-18 06:44:00,
2013-05-18 03:00:00,57.0,31.0,30.18,North,0,0.0,0.0,37,0.00,,BKN080,0.00,VWS V14.00,2013-05-18 07:00:00,
2013-05-18 03:14:00,56.5,29.9,30.18,North,0,0.0,0.0,36,0.00,,SCT085,0.00,VWS V14.00,2013-05-18 07:14:00,
2013-05-18 03:29:00,56.7,30.0,30.18,North,0,0.0,0.0,36,0.00,,SCT085,0.00,VWS V14.00,2013-05-18 07:29:00,
2013-05-18 04:00:00,56.3,30.4,30.18,North,0,0.0,0.0,37,0.00,,SCT085,0.00,VWS V14.00,2013-05-18 08:00:00,
2013-05-18 04:15:00,55.9,30.7,30.18,North,0,0.0,0.0,38,0.00,,OVC085,0.00,VWS V14.00,2013-05-18 08:15:00,
2013-05-18 04:30:00,56.3,31.0,30.18,North,0,0.0,0.0,38,0.00,,OVC085,0.00,VWS V14.00,2013-05-18 08:30:00,
2013-05-18 04:45:00,55.9,30.1,30.18,North,0,0.0,0.0,37,0.00,,OVC085,0.00,VWS V14.00,2013-05-18 08:45:00,
2013-05-18 05:00:00,56.3,29.7,30.18,North,0,0.0,0.0,36,0.00,,OVC085,0.00,VWS V14.00,2013-05-18 09:00:00,
2013-05-18 05:15:00,56.5,29.2,30.18,North,0,0.0,0.0,35,0.00,,OVC070,0.00,VWS V14.00,2013-05-18 09:15:00,
2013-05-18 05:30:00,56.3,29.0,30.18,North,0,0.0,0.0,35,0.00,,OVC070,0.00,VWS V14.00,2013-05-18 09:30:00,
2013-05-18 05:45:00,55.9,29.4,30.18,North,0,0.0,0.0,36,0.00,,OVC070,0.00,VWS V14.00,2013-05-18 09:45:00,
2013-05-18 06:00:00,55.8,29.2,30.18,North,0,0.0,0.0,36,0.00,,CLR,0.00,VWS V14.00,2013-05-18 10:00:00,
2013-05-18 06:15:00,55.2,29.4,30.18,North,0,0.0,0.0,37,0.00,,CLR,0.00,VWS V14.00,2013-05-18 10:15:00,
2013-05-18 06:30:00,55.9,30.1,30.21,North,0,0.0,0.0,37,0.00,,CLR,0.00,VWS V14.00,2013-05-18 10:30:00,
2013-05-18 06:45:00,55.9,30.1,30.21,North,0,0.0,0.0,37,0.00,,BKN065,0.00,VWS V14.00,2013-05-18 10:45:00,
2013-05-18 07:00:00,56.3,29.7,30.21,North,0,0.0,0.0,36,0.00,,BKN065,0.00,VWS V14.00,2013-05-18 11:00:00,
2013-05-18 07:15:00,56.3,29.7,30.21,North,0,0.0,0.0,36,0.00,,BKN065,0.00,VWS V14.00,2013-05-18 11:15:00,
2013-05-18 07:30:00,56.8,29.5,30.21,North,0,0.0,0.0,35,0.00,,BKN065,0.00,VWS V14.00,2013-05-18 11:30:00,
2013-05-18 07:45:00,57.6,27.2,30.21,North,0,0.0,0.0,31,0.00,,BKN065,0.00,VWS V14.00,2013-05-18 11:45:00,
2013-05-18 08:00:00,58.1,26.0,30.21,North,0,0.0,0.0,29,0.00,,BKN065,0.00,VWS V14.00,2013-05-18 12:00:00,
2013-05-18 08:15:00,58.8,26.6,30.21,North,0,0.0,0.0,29,0.00,,BKN065,0.00,VWS V14.00,2013-05-18 12:15:00,
2013-05-18 08:30:00,59.4,25.4,30.21,North,0,0.0,0.0,27,0.00,,BKN065,0.00,VWS V14.00,2013-05-18 12:30:00,
2013-05-18 08:45:00,59.5,25.5,30.21,North,0,0.0,0.0,27,0.00,,BKN065,0.00,VWS V14.00,2013-05-18 12:45:00,
2013-05-18 09:00:00,59.7,27.4,30.21,North,0,0.0,0.0,29,0.00,,BKN065,0.00,VWS V14.00,2013-05-18 13:00:00,
2013-05-18 09:15:00,60.3,26.2,30.21,North,0,0.0,0.0,27,0.00,,BKN065,0.00,VWS V14.00,2013-05-18 13:15:00,
2013-05-18 09:30:00,61.9,26.6,30.21,North,0,0.0,0.0,26,0.00,,CLR,0.00,VWS V14.00,2013-05-18 13:30:00,
2013-05-18 09:44:00,62.2,26.0,30.24,North,0,0.0,0.0,25,0.00,,CLR,0.00,VWS V14.00,2013-05-18 13:44:00,
2013-05-18 09:59:00,63.1,26.8,30.21,North,0,0.0,0.0,25,0.00,,CLR,0.00,VWS V14.00,2013-05-18 13:59:00,
2013-05-18 10:14:00,65.3,27.6,30.21,North,0,0.0,0.0,24,0.00,,CLR,0.00,VWS V14.00,2013-05-18 14:14:00,
2013-05-18 10:29:00,68.4,28.1,30.21,North,0,0.0,0.0,22,0.00,,CLR,0.00,VWS V14.00,2013-05-18 14:29:00,
2013-05-18 10:44:00,70.5,26.3,30.21,North,0,0.0,0.0,19,0.00,,CLR,0.00,VWS V14.00,2013-05-18 14:44:00,
2013-05-18 10:59:00,70.2,26.0,30.21,North,0,0.0,0.0,19,0.00,,CLR,0.00,VWS V14.00,2013-05-18 14:59:00,
2013-05-18 11:14:00,69.1,26.4,30.21,North,0,0.0,0.0,20,0.00,,OVC120,0.00,VWS V14.00,2013-05-18 15:14:00,
2013-05-18 11:29:00,69.3,26.5,30.21,North,0,0.0,0.0,20,0.00,,OVC120,0.00,VWS V14.00,2013-05-18 15:29:00,
2013-05-18 11:44:00,67.3,24.9,30.21,North,0,0.0,0.0,20,0.00,,OVC120,0.00,VWS V14.00,2013-05-18 15:44:00,
2013-05-18 11:59:00,67.1,24.7,30.21,North,0,0.0,0.0,20,0.00,,OVC120,0.00,VWS V14.00,2013-05-18 15:59:00,
2013-05-18 12:14:00,66.6,24.3,30.21,North,0,0.0,0.0,20,0.00,,BKN110,0.00,VWS V14.00,2013-05-18 16:14:00,
2013-05-18 12:29:00,66.6,26.6,30.21,North,0,0.0,0.0,22,0.00,,BKN110,0.00,VWS V14.00,2013-05-18 16:29:00,
2013-05-18 12:44:00,67.1,24.7,30.21,North,0,0.0,0.0,20,0.00,,BKN110,0.00,VWS V14.00,2013-05-18 16:44:00,
2013-05-18 12:59:00,67.5,25.0,30.21,North,0,0.0,0.0,20,0.00,,BKN110,0.00,VWS V14.00,2013-05-18 16:59:00,
2013-05-18 13:14:00,66.7,24.4,30.21,North,0,0.0,0.0,20,0.00,,OVC055,0.00,VWS V14.00,2013-05-18 17:14:00,
2013-05-18 13:29:00,66.9,24.6,30.18,North,0,0.0,0.0,20,0.00,,OVC055,0.00,VWS V14.00,2013-05-18 17:29:00,
2013-05-18 13:44:00,67.8,25.3,30.21,North,0,0.0,0.0,20,0.00,,OVC055,0.00,VWS V14.00,2013-05-18 17:44:00,
2013-05-18 13:59:00,68.2,25.6,30.21,North,0,0.0,0.0,20,0.00,,OVC055,0.00,VWS V14.00,2013-05-18 17:59:00,
2013-05-18 14:14:00,69.1,26.4,30.18,North,0,0.0,0.0,20,0.00,,OVC045,0.00,VWS V14.00,2013-05-18 18:14:00,
2013-05-18 14:29:00,69.3,26.5,30.18,North,0,0.0,0.0,20,0.00,,OVC045,0.00,VWS V14.00,2013-05-18 18:29:00,
2013-05-18 14:44:00,69.4,26.7,30.18,North,0,0.0,0.0,20,0.00,,OVC045,0.00,VWS V14.00,2013-05-18 18:44:00,
2013-05-18 14:59:00,68.9,26.2,30.18,North,0,0.0,0.0,20,0.00,,OVC045,0.00,VWS V14.00,2013-05-18 18:59:00,
2013-05-18 15:15:00,68.2,25.6,30.18,North,0,0.0,0.0,20,0.00,,OVC045,0.00,VWS V14.00,2013-05-18 19:15:00,
2013-05-18 15:29:00,68.0,27.8,30.18,North,0,0.0,0.0,22,0.00,,OVC045,0.00,VWS V14.00,2013-05-18 19:29:00,
2013-05-18 15:44:00,68.5,28.2,30.18,North,0,0.0,0.0,22,0.00,,OVC045,0.00,VWS V14.00,2013-05-18 19:44:00,
2013-05-18 16:00:00,68.2,25.6,30.18,North,0,0.0,0.0,20,0.00,,OVC045,0.00,VWS V14.00,2013-05-18 20:00:00,
2013-05-18 16:14:00,68.2,25.6,30.18,North,0,0.0,0.0,20,0.00,,OVC047,0.00,VWS V14.00,2013-05-18 20:14:00,
2013-05-18 16:30:00,68.4,25.8,30.18,North,0,0.0,0.0,20,0.00,,OVC047,0.00,VWS V14.00,2013-05-18 20:30:00,
2013-05-18 16:45:00,68.4,25.8,30.18,North,0,0.0,0.0,20,0.00,,OVC047,0.00,VWS V14.00,2013-05-18 20:45:00,
2013-05-18 17:00:00,68.4,25.8,30.18,North,0,0.0,0.0,20,0.00,,OVC047,0.00,VWS V14.00,2013-05-18 21:00:00,
2013-05-18 17:15:00,68.2,25.6,30.18,North,0,0.0,0.0,20,0.00,,-RA,0.00,VWS V14.00,2013-05-18 21:15:00,
2013-05-18 17:30:00,68.0,25.5,30.18,North,0,0.0,0.0,20,0.00,,-RA,0.00,VWS V14.00,2013-05-18 21:30:00,
2013-05-18 17:45:00,67.3,27.2,30.18,North,0,0.0,0.0,22,0.00,,-RA,0.00,VWS V14.00,2013-05-18 21:45:00,
2013-05-18 18:00:00,67.5,27.3,30.18,North,0,0.0,0.0,22,0.00,,OVC043,0.00,VWS V14.00,2013-05-18 22:00:00,
2013-05-18 18:15:00,67.6,27.5,30.18,North,0,0.0,0.0,22,0.00,,OVC043,0.00,VWS V14.00,2013-05-18 22:15:00,
2013-05-18 18:30:00,67.3,27.2,30.18,North,0,0.0,0.0,22,0.00,,OVC043,0.00,VWS V14.00,2013-05-18 22:30:00,
2013-05-18 18:45:00,66.4,27.5,30.18,North,0,0.0,0.0,23,0.00,,OVC043,0.00,VWS V14.00,2013-05-18 22:45:00,
2013-05-18 19:00:00,66.0,27.2,30.18,North,0,0.0,0.0,23,0.00,,OVC043,0.00,VWS V14.00,2013-05-18 23:00:00,
2013-05-18 19:15:00,65.7,26.9,30.18,North,0,0.0,0.0,23,0.00,,OVC043,0.00,VWS V14.00,2013-05-18 23:15:00,
2013-05-18 19:30:00,65.3,27.6,30.18,North,0,0.0,0.0,24,0.00,,OVC043,0.00,VWS V14.00,2013-05-18 23:30:00,
2013-05-18 19:45:00,65.1,27.5,30.18,North,0,0.0,0.0,24,0.00,,OVC043,0.00,VWS V14.00,2013-05-18 23:45:00,
2013-05-18 20:00:00,64.4,27.8,30.21,North,0,0.0,0.0,25,0.00,,OVC039,0.00,VWS V14.00,2013-05-19 00:00:00,
2013-05-18 20:15:00,63.9,29.3,30.21,North,0,0.0,0.0,27,0.00,,OVC039,0.00,VWS V14.00,2013-05-19 00:15:00,
2013-05-18 20:44:00,63.0,33.4,30.21,North,0,0.0,0.0,33,0.00,,OVC029,0.00,VWS V14.00,2013-05-19 00:44:00,
2013-05-18 20:59:00,62.2,34.3,30.21,North,0,0.0,0.0,35,0.00,,OVC029,0.00,VWS V14.00,2013-05-19 00:59:00,
2013-05-18 21:14:00,62.1,34.8,30.21,North,0,0.0,0.0,36,0.00,,OVC029,0.00,VWS V14.00,2013-05-19 01:14:00,
2013-05-18 21:29:00,61.9,35.3,30.21,North,0,0.0,0.0,37,0.00,,OVC029,0.00,VWS V14.00,2013-05-19 01:29:00,
2013-05-18 21:44:00,61.9,36.0,30.21,North,0,0.0,0.0,38,0.00,,OVC029,0.00,VWS V14.00,2013-05-19 01:44:00,
2013-05-18 21:59:00,61.5,37.6,30.21,North,0,0.0,0.0,41,0.00,,OVC025,0.00,VWS V14.00,2013-05-19 01:59:00,
2013-05-18 22:14:00,61.0,40.1,30.21,North,0,0.0,0.0,46,0.00,,OVC025,0.00,VWS V14.00,2013-05-19 02:14:00,
2013-05-18 22:29:00,60.6,40.8,30.21,North,0,0.0,0.0,48,0.00,,OVC025,0.00,VWS V14.00,2013-05-19 02:29:00,
2013-05-18 22:44:00,60.4,42.8,30.21,North,0,0.0,0.0,52,0.00,,OVC025,0.00,VWS V14.00,2013-05-19 02:44:00,
2013-05-18 22:59:00,60.4,43.2,30.21,North,0,0.0,0.0,53,0.00,,OVC025,0.00,VWS V14.00,2013-05-19 02:59:00,
2013-05-18 23:14:00,60.3,43.6,30.21,North,0,0.0,0.0,54,0.00,,OVC023,0.00,VWS V14.00,2013-05-19 03:14:00,
2013-05-18 23:29:00,60.1,44.8,30.21,North,0,0.0,0.0,57,0.00,,OVC023,0.00,VWS V14.00,2013-05-19 03:29:00,
2013-05-18 23:44:00,59.9,45.5,30.21,North,0,0.0,0.0,59,0.00,,OVC023,0.00,VWS V14.00,2013-05-19 03:44:00,
2013-05-18 23:59:00,59.7,45.8,30.21,North,0,0.0,0.0,60,0.00,,OVC023,0.00,VWS V14.00,2013-05-19 03:59:00,